Tracking 27428 objects as of 31-May-2023
HD Live streaming from Space Station
objects crossing your sky now

RADUGA 1-7

Track RADUGA 1-7 now!
RADUGA 1-7 is classified as:


NORAD ID: 28194
Int'l Code: 2004-010A
Perigee: 35,808.7 km
Apogee: 35,825.5 km
Inclination: 12.4 °
Period: 1,437.3 minutes
Semi major axis: 42188 km
RCS: 12.5893 m2 (large)
Launch date: March 27, 2004
Source: Commonwealth of Independent States (former USSR) (CIS)
Launch site: TYURATAM MISSILE AND SPACE COMPLEX (TTMTR)

Military communication.
Your satellite tracking list
Your tracking list is empty




NASA's NSSDC Master Catalog

Two Line Element Set (TLE):
1 28194U 04010A   23150.79561850  .00000133  00000-0  00000-0 0  9998
2 28194  12.3731  29.1910 0001983 142.3216  46.7374  1.00188497 70258
Source of the keplerian elements: AFSPC